Weather History for Grand Forks AFB, ND

Change the Weather History Date:

Saturday, March 9, 2013

  Actual Average Record
Temperature  
Mean Temperature 26 °F -  
Max Temperature 30 °F 23 °F 42 °F (2014)
Min Temperature 21 °F 6 °F -13 °F (2003)
Degree Days  
Heating Degree Days 40    
Moisture  
Dew Point 20 °F    
Average Humidity 83    
Maximum Humidity 93    
Minimum Humidity 69    
Precipitation  
Precipitation 0.00 in - - ()
Sea Level Pressure  
Sea Level Pressure 29.98 in    
Wind  
Wind Speed 10 mph (North)    
Max Wind Speed 20 mph    
Max Gust Speed 31 mph    
Visibility 10 miles    
Events      
Averages and records for this station are not official NWS values.
T = Trace of Precipitation, MM = Missing Value Source: NWS Daily Summary

Daily Weather History Graph

Daily Weather History Graph

Search for Another Location

Airport:

Trip Planner

Search our weather history database for the weather conditions in past years. The results will help you decide how hot, cold, wet, or windy it might be!

Date:

Astronomy

Mar. 09, 2013 Rise Set
Actual Time 6:54 AM CST 6:26 PM CST
Civil Twilight 6:23 AM CST 6:57 PM CST
Nautical Twilight 5:47 AM CST 7:33 PM CST
Astronomical Twilight 5:11 AM CST 8:10 PM CST
Moon 5:26 AM CST (3/9) 4:24 PM CST (3/9)
Length of Visible Light 12h 34m
Length of Day
11h 32m
Waning Crescent, 5% of the Moon is Illuminated
Mar 9
Waning Crescent
Mar 11
New
Mar 19
First Quarter
Mar 27
Full
Apr 2
Last Quarter

Hourly Weather History & Observations

Time (CST) Temp. Windchill Dew Point Humidity Pressure Visibility Wind Dir Wind Speed Gust Speed Precip Events Conditions
12:14 AM 23.0 °F 14.7 °F 15.8 °F 74% 30.11 in 10.0 mi NNE 6.9 mph - N/A   Overcast
12:55 AM 22.3 °F 16.1 °F 15.8 °F 76% 30.09 in 10.0 mi North 4.6 mph - N/A   Overcast
12:57 AM 23.0 °F 15.8 °F 15.8 °F 74% 30.08 in 10.0 mi North 5.8 mph - N/A   Overcast
1:06 AM 21.2 °F 12.6 °F 15.8 °F 80% 30.07 in 10.0 mi NNE 6.9 mph - N/A   Overcast
1:55 AM 21.6 °F 12.1 °F 16.5 °F 81% 30.05 in 10.0 mi NNE 8.1 mph - N/A   Overcast
2:55 AM 21.2 °F 9.5 °F 17.6 °F 86% 30.02 in 10.0 mi North 11.5 mph - N/A   Overcast
3:15 AM 21.2 °F 10.1 °F 19.4 °F 93% 30.01 in 10.0 mi North 10.4 mph - N/A   Overcast
3:24 AM 21.2 °F 10.9 °F 19.4 °F 93% 30.01 in 10.0 mi NNE 9.2 mph - N/A   Overcast
3:29 AM 21.2 °F 11.7 °F 19.4 °F 93% 30.01 in 9.0 mi NNE 8.1 mph - N/A   Overcast
3:34 AM 21.2 °F 11.7 °F 19.4 °F 93% 30.01 in 9.0 mi NNE 8.1 mph - N/A   Overcast
3:55 AM 21.9 °F 13.4 °F 18.9 °F 88% 29.99 in 10.0 mi NNE 6.9 mph - N/A   Overcast
4:34 AM 21.2 °F 11.7 °F 19.4 °F 93% 29.98 in 9.0 mi North 8.1 mph - N/A   Overcast
4:42 AM 21.2 °F 10.9 °F 19.4 °F 93% 29.98 in 9.0 mi North 9.2 mph - N/A   Overcast
4:55 AM 21.4 °F 11.1 °F 18.9 °F 90% 29.98 in 10.0 mi North 9.2 mph - N/A   Overcast
5:12 AM 21.2 °F 10.9 °F 19.4 °F 93% 29.97 in 9.0 mi North 9.2 mph - N/A   Overcast
5:55 AM 21.4 °F 10.4 °F 18.9 °F 90% 29.97 in 9.0 mi North 10.4 mph - N/A   Overcast
6:22 AM 21.2 °F 10.1 °F 19.4 °F 93% 29.97 in 9.0 mi North 10.4 mph - N/A   Overcast
6:55 AM 21.4 °F 11.9 °F 18.3 °F 88% 29.96 in 9.0 mi North 8.1 mph - N/A   Overcast
7:55 AM 21.4 °F 9.1 °F 18.5 °F 89% 29.95 in 9.0 mi North 12.7 mph - N/A   Overcast
8:55 AM 21.9 °F 10.4 °F 18.7 °F 87% 29.95 in 10.0 mi North 11.5 mph - N/A   Overcast
9:55 AM 23.0 °F 12.4 °F 18.9 °F 84% 29.92 in 10.0 mi North 10.4 mph - N/A   Partly Cloudy
10:11 AM 23.0 °F 11.1 °F 19.4 °F 86% 29.92 in 10.0 mi North 12.7 mph - N/A   Clear
10:29 AM 23.0 °F 12.4 °F 19.4 °F 86% 29.91 in 10.0 mi North 10.4 mph - N/A   Partly Cloudy
10:55 AM 23.9 °F 11.7 °F 19.4 °F 83% 29.90 in 10.0 mi North 13.8 mph - 0.00 in   Mostly Cloudy
11:02 AM 24.8 °F 12.9 °F 19.4 °F 80% 29.90 in 10.0 mi North 13.8 mph - N/A   Mostly Cloudy
11:53 AM 24.8 °F 12.4 °F 21.2 °F 86% 29.91 in 10.0 mi North 15.0 mph - N/A   Mostly Cloudy
11:55 AM 25.2 °F 12.4 °F 20.5 °F 82% 29.91 in 10.0 mi North 16.1 mph - N/A   Mostly Cloudy
12:55 PM 26.6 °F 15.2 °F 21.4 °F 81% 29.88 in 10.0 mi North 13.8 mph - N/A   Mostly Cloudy
1:55 PM 27.5 °F 15.4 °F 21.4 °F 78% 29.89 in 10.0 mi North 16.1 mph - N/A   Overcast
2:55 PM 28.6 °F 19.3 °F 21.0 °F 73% 29.88 in 10.0 mi North 10.4 mph - N/A   Scattered Clouds
3:55 PM 29.1 °F 20.6 °F 21.6 °F 73% 29.89 in 10.0 mi North 9.2 mph - N/A   Overcast
4:55 PM 29.3 °F 19.6 °F 21.6 °F 73% 29.90 in 10.0 mi North 11.5 mph - N/A   Overcast
5:29 PM 30.2 °F 21.9 °F 21.2 °F 69% 29.91 in 10.0 mi North 9.2 mph - N/A   Overcast
5:55 PM 29.3 °F 17.7 °F 23.9 °F 80% 29.92 in 10.0 mi North 16.1 mph - N/A   Overcast
5:56 PM 28.4 °F 18.5 °F 23.0 °F 80% 29.93 in 10.0 mi North 11.5 mph - N/A   Overcast
6:33 PM 28.4 °F 20.4 °F 21.2 °F 74% 29.95 in 10.0 mi North 8.1 mph - N/A   Overcast
6:53 PM 28.4 °F 20.4 °F 21.2 °F 74% 29.96 in 10.0 mi North 8.1 mph - N/A   Overcast
6:55 PM 27.7 °F 19.6 °F 22.1 °F 80% 29.96 in 10.0 mi North 8.1 mph - N/A   Overcast
7:55 PM 27.1 °F 18.2 °F 23.0 °F 84% 29.98 in 10.0 mi North 9.2 mph - N/A   Overcast
8:09 PM 26.6 °F 14.3 °F 23.0 °F 86% 29.99 in 10.0 mi North 16.1 mph - N/A   Overcast
8:17 PM 26.6 °F 13.8 °F 23.0 °F 86% 30.00 in 10.0 mi North 17.3 mph - N/A   Overcast
8:43 PM 26.6 °F 14.3 °F 21.2 °F 80% 30.01 in 10.0 mi North 16.1 mph - N/A   Overcast
8:55 PM 25.9 °F 13.3 °F 21.0 °F 82% 30.01 in 10.0 mi North 16.1 mph - N/A   Overcast
9:55 PM 24.8 °F 10.7 °F 18.9 °F 78% 30.03 in 10.0 mi North 19.6 mph 25.3 mph N/A   Overcast
9:57 PM 24.8 °F 11.1 °F 19.4 °F 80% 30.04 in 10.0 mi North 18.4 mph 26.5 mph N/A   Overcast
10:17 PM 24.8 °F 11.1 °F 19.4 °F 80% 30.04 in 10.0 mi North 18.4 mph 24.2 mph N/A   Overcast
10:55 PM 23.5 °F 9.0 °F 18.3 °F 80% 30.05 in 10.0 mi North 19.6 mph 31.1 mph N/A   Overcast
11:55 PM 23.0 °F 8.3 °F 18.0 °F 81% 30.07 in 10.0 mi North 19.6 mph 26.5 mph N/A   Overcast